Regional Weather Roundup
Issued by NWS

Home | Current Version | Previous Version | Graphics & Text | Print | Product List | Glossary On
Versions: 1 2 3 4 5 6 7 8 9 10 11 12 13 14 15 16 17 18 19 20 21 22 23 24 25 26 27 28 29 30 31 32 33 34 35 36 37 38 39 40 41 42 43 44 45 46 47 48 49 50
000
ASUS43 KOAX 080510
RWRNE

WEATHER ROUNDUP FOR NEBRASKA
NATIONAL WEATHER SERVICE OMAHA NE
1100 PM CST WED DEC 07 2016

NOTES: SATELLITE DATA IS BEING USED TO AUGMENT CLOUD COVER ABOVE
       12000 FEET.
       "FAIR" INDICATES FEW OR NO CLOUDS BELOW 12,000 FEET WITH NO
       SIGNIFICANT WEATHER AND/OR OBSTRUCTIONS TO VISIBILITY.

  * THESE STATIONS DO NOT REPORT WEATHER SUCH AS RAIN...SNOW OR FOG.

NEZ001>004-019>022-054>056-080600-
NEBRASKA PANHANDLE

CITY           SKY/WX    TMP DP  RH WIND       PRES   REMARKS
SCOTTSBLUFF    CLEAR     -2  -8  76 NW8       30.48R WCI -17
ALLIANCE       CLEAR     -3  -9  75 W9        30.42R WCI -19
CHADRON        CLEAR      4  -5  66 W16       30.50R WCI -15
KIMBALL        CLOUDY    -8 -12  81 W9        30.40R WCI -25
SIDNEY         CLEAR     -3  -9  75 NW10      30.43R WCI -20
$$

NEZ057>060-069>072-079>082-080600-
SOUTHWEST NEBRASKA

CITY           SKY/WX    TMP DP  RH WIND       PRES   REMARKS
NORTH PLATTE   CLEAR      4  -1  80 NW9       30.51R WCI -10
IMPERIAL       CLEAR      3  -5  69 NW12      30.50R WCI -13
LEXINGTON      CLEAR     10   3  71 NW12      30.51R WCI  -4
MCCOOK         CLEAR     -1  -5  82 W8        30.53R WCI -15
OGALLALA       CLEAR      3  -3  76 NW7       30.50R WCI -10
$$

NEZ005>010-023>029-035>040-094-080600-
NORTH CENTRAL NEBRASKA

CITY           SKY/WX    TMP DP  RH WIND       PRES   REMARKS
VALENTINE      CLEAR      7  -4  60 NW18G24   30.48R WCI -12
AINSWORTH      CLEAR      8  -1  69 NW23      30.46R WCI -13
BROKEN BOW     CLEAR      9   1  70 NW16      30.48R WCI  -8
O`NEILL        CLEAR     11   1  66 NW18      30.46R WCI  -7
ORD            CLEAR     11  -1  58 NW21G29   30.48R WCI  -8
THEDFORD       CLEAR      5  -1  78 NW7       30.48R WCI  -7
$$

NEZ041-046>049-061>064-073>077-083>087-080600-
SOUTH CENTRAL NEBRASKA

CITY           SKY/WX    TMP DP  RH WIND       PRES   REMARKS
GRAND ISLAND   CLEAR     12   3  67 NW15      30.50R WCI  -4
AURORA         CLEAR     14   3  60 NW17G24   30.49R WCI  -2
HASTINGS       CLEAR     13   3  64 NW14      30.51R WCI  -2
HEBRON         CLEAR     17   6  62 NW10      30.52R WCI   4
HOLDREGE       CLEAR      9   1  71 NW7       30.51R WCI  -3
KEARNEY *      CLEAR     12   1  62 NW10      30.50R WCI  -1
YORK           PTCLDY    14   5  67 NW20      30.49R WCI  -3
$$

NEZ011>018-030>034-042>045-080600-
NORTHEAST NEBRASKA

CITY           SKY/WX    TMP DP  RH WIND       PRES   REMARKS
NORFOLK        CLEAR     12   0  58 NW22G29   30.44R WCI  -7
ALBION         CLEAR     12   1  62 NW17G24   30.46R WCI  -5
BLAIR          CLEAR     16   7  67 W12       30.43R WCI   2
FREMONT        CLEAR     14   6  69 W15       30.47R WCI  -1
TEKAMAH        CLEAR     15   4  61 NW21G31   30.45R WCI  -2
WAYNE          CLEAR     13   4  67 NW22G29   30.43R WCI  -6
$$

NEZ050>053-065>068-078-088>093-080600-
SOUTHEAST NEBRASKA

CITY           SKY/WX    TMP DP  RH WIND       PRES   REMARKS
LINCOLN        CLEAR     17   5  59 NW16      30.50R WCI   2
OMAHA EPPLEY   CLEAR     17   5  59 NW18G28   30.46R WCI   1
BEATRICE       CLEAR     17   8  65 NW15      30.49R WCI   3
FALLS CITY     CLEAR     19   8  62 NW13      30.48R WCI   6
NEBRASKA CITY  CLEAR     18   3  52 NW16      30.46R WCI   3
PLATTSMOUTH    CLEAR     17   4  56 NW18G24   30.45R WCI   1
$$

NEZ044-045-051>053-067-080600-
OMAHA AREA

CITY           SKY/WX    TMP DP  RH WIND       PRES   REMARKS
OMAHA EPPLEY   CLEAR     17   5  59 NW18G28   30.46R WCI   1
BLAIR          CLEAR     16   7  67 W12       30.43R WCI   2
FREMONT        CLEAR     14   6  69 W15       30.47R WCI  -1
MILLARD        CLEAR     17   5  58 NW17G25   30.47R WCI   2
OFFUTT AFB     CLEAR     17   5  60 NW18G24   30.45R WCI   1
PLATTSMOUTH    CLEAR     17   4  56 NW18G24   30.45R WCI   1
WAHOO          FAIR      16   4  61 NW21G29   30.46S WCI  -2
$$



USA.gov is the U.S. government's official web portal to all federal, state and local government web resources and services.